Lubbock, TX

5:48 AM CDT on June 24, 2017 (GMT -0500)
Lubbock International

Weather History for KLBB - January, 2012

Change the Weather History Date:

Thursday, January 5, 2012

  Actual Average Record
Temperature  
Mean Temperature 45 °F 40 °F  
Max Temperature 67 °F 53 °F 82 °F (1927)
Min Temperature 23 °F 26 °F -4 °F (1971)
Degree Days  
Heating Degree Days 20 25  
Month to date heating degree days 110 129  
Since 1 July heating degree days 1519 1527  
Cooling Degree Days 0 0  
Month to date cooling degree days 0 0  
Year to date cooling degree days 0 0  
Moisture  
Dew Point 20 °F    
Average Humidity 48    
Maximum Humidity 81    
Minimum Humidity 15    
Precipitation  
Precipitation 0.00 in 0.02 in 0.48 in (1932)
Month to date precipitation 0.00 0.09  
Year to date precipitation 0.00 0.09  
Snow  
Snow 0.00 in 0.10 in 4.50 in (1932)
Month to date snowfall 0.0 0.4  
Since 1 July snowfall 4.0 3.6  
Snow Depth 0.00 in    
Sea Level Pressure  
Sea Level Pressure 30.18 in    
Wind  
Wind Speed 10 mph (WSW)    
Max Wind Speed 15 mph    
Max Gust Speed 20 mph    
Visibility 10 miles    
Events      
T = Trace of Precipitation, MM = Missing Value Source: NWS Daily Summary

Daily Weather History Graph

Daily Weather History Graph

Search for Another Location

Airport or City:

Trip Planner

Search our weather history database for the weather conditions in past years. The results will help you decide how hot, cold, wet, or windy it might be!

Date:

Astronomy

Jan. 05, 2012 Rise Set
Actual Time 7:52 AM CST 5:52 PM CST
Civil Twilight 7:25 AM CST 6:20 PM CST
Nautical Twilight 6:54 AM CST 6:51 PM CST
Astronomical Twilight 6:23 AM CST 7:21 PM CST
Moon 2:58 PM CST (1/5) 4:39 AM CST (1/5)
Length of Visible Light 10h 55m
Length of Day
10h 00m
Waxing Gibbous, 88% of the Moon is Illuminated
Jan 5
Waxing Gibbous
Jan 9
Full
Jan 16
Last Quarter
Jan 23
New
Jan 30
First Quarter

Hourly Weather History & Observations

Time (CST) Temp. Windchill Dew Point Humidity Pressure Visibility Wind Dir Wind Speed Gust Speed Precip Events Conditions
12:53 AM 30.0 °F 26.5 °F 19.9 °F 66% 30.33 in 10.0 mi West 3.5 mph - N/A   Clear
1:53 AM 28.0 °F 22.8 °F 19.9 °F 72% 30.32 in 10.0 mi WNW 4.6 mph - N/A   Clear
2:53 AM 28.0 °F 22.8 °F 19.0 °F 69% 30.32 in 10.0 mi WNW 4.6 mph - N/A   Clear
3:53 AM 27.0 °F 20.5 °F 19.0 °F 72% 30.32 in 10.0 mi WNW 5.8 mph - N/A   Clear
4:53 AM 24.1 °F 17.0 °F 19.0 °F 81% 30.30 in 10.0 mi WNW 5.8 mph - N/A   Clear
5:53 AM 24.1 °F 19.7 °F 18.0 °F 77% 30.32 in 10.0 mi West 3.5 mph - N/A   Clear
6:53 AM 24.1 °F 17.0 °F 18.0 °F 77% 30.32 in 10.0 mi WSW 5.8 mph - N/A   Clear
7:53 AM 23.0 °F 14.7 °F 18.0 °F 81% 30.32 in 10.0 mi West 6.9 mph - N/A   Clear
8:53 AM 30.0 °F 24.1 °F 23.0 °F 75% 30.30 in 10.0 mi West 5.8 mph - N/A   Clear
9:53 AM 42.1 °F 36.6 °F 27.0 °F 55% 30.29 in 10.0 mi West 9.2 mph - N/A   Partly Cloudy
10:53 AM 51.8 °F - 28.4 °F 41% 30.28 in 10.0 mi WSW 11.5 mph - N/A   Partly Cloudy
11:53 AM 59.0 °F - 26.1 °F 28% 30.22 in 10.0 mi WSW 16.1 mph - N/A   Clear
12:53 PM 62.1 °F - 24.1 °F 23% 30.17 in 10.0 mi SW 18.4 mph 24.2 mph N/A   Clear
1:53 PM 64.9 °F - 19.9 °F 18% 30.12 in 10.0 mi SW 19.6 mph - N/A   Partly Cloudy
2:53 PM 66.0 °F - 18.0 °F 16% 30.09 in 10.0 mi WSW 19.6 mph - N/A   Partly Cloudy
3:53 PM 66.0 °F - 17.1 °F 15% 30.06 in 10.0 mi WSW 17.3 mph 24.2 mph N/A   Partly Cloudy
4:53 PM 64.0 °F - 17.1 °F 16% 30.05 in 10.0 mi SW 13.8 mph - N/A   Partly Cloudy
5:53 PM 57.9 °F - 17.1 °F 20% 30.05 in 10.0 mi SW 10.4 mph - N/A   Partly Cloudy
6:53 PM 52.0 °F - 19.0 °F 27% 30.06 in 10.0 mi SSW 9.2 mph - N/A   Clear
7:53 PM 51.1 °F - 19.9 °F 29% 30.05 in 10.0 mi SSW 11.5 mph - N/A   Clear
8:53 PM 50.0 °F - 19.9 °F 31% 30.03 in 10.0 mi SW 12.7 mph - N/A   Clear
9:53 PM 48.0 °F - 19.9 °F 33% 30.01 in 10.0 mi SW 13.8 mph - N/A   Clear
10:53 PM 46.9 °F - 19.9 °F 34% 29.97 in 10.0 mi SW 13.8 mph - N/A   Clear
11:53 PM 46.9 °F - 21.0 °F 36% 29.94 in 10.0 mi SW 12.7 mph - N/A   Clear